Weather History for Kalispell, MT

Change the Weather History Date:

Saturday, December 15, 2012

  Actual Average Record
Temperature  
Mean Temperature 26 °F 22 °F  
Max Temperature 30 °F 29 °F 50 °F (1939)
Min Temperature 21 °F 15 °F -17 °F (1924)
Degree Days  
Heating Degree Days 39 43  
Month to date heating degree days 513 616  
Since 1 July heating degree days 2493 2820  
Cooling Degree Days 0 0  
Month to date cooling degree days 0 0  
Year to date cooling degree days 192 147  
Moisture  
Dew Point 23 °F    
Average Humidity 89    
Maximum Humidity 100    
Minimum Humidity 78    
Precipitation  
Precipitation T in 0.05 in 0.98 in (1924)
Month to date precipitation 0.88 0.72  
Year to date precipitation 20.02 16.15  
Snow  
Snow T in - - ()
Month to date snowfall 3.3  
Year to date snowfall 30.7  
Since 1 July snowfall 5.6  
Snow Depth 1.00 in    
Sea Level Pressure  
Sea Level Pressure 29.84 in    
Wind  
Wind Speed 0 mph (WNW)    
Max Wind Speed 6 mph    
Max Gust Speed 6 mph    
Visibility 9 miles    
Events Snow    
T = Trace of Precipitation, MM = Missing Value Source: NWS Daily Summary

Daily Weather History Graph

Daily Weather History Graph

Search for Another Location

Airport:

Trip Planner

Search our weather history database for the weather conditions in past years. The results will help you decide how hot, cold, wet, or windy it might be!

Date:

Astronomy

Dec. 15, 2012 Rise Set
Actual Time 8:21 AM MST 4:43 PM MST
Civil Twilight 7:45 AM MST 5:19 PM MST
Nautical Twilight 7:05 AM MST 5:59 PM MST
Astronomical Twilight 6:27 AM MST 6:37 PM MST
Moon 10:08 AM MST (12/15) 8:02 PM MST (12/15)
Length of Visible Light 9h 34m
Length of Day
8h 21m
Waxing Crescent, 9% of the Moon is Illuminated
Dec 15
Waxing Crescent
Dec 19
First Quarter
Dec 28
Full
Jan 4
Last Quarter
Jan 11
New

Hourly Weather History & Observations

Time (MST) Temp. Windchill Dew Point Humidity Pressure Visibility Wind Dir Wind Speed Gust Speed Precip Events Conditions
12:02 AM 24.8 °F - 21.2 °F 86% 29.84 in 8.0 mi Calm Calm - N/A   Overcast
12:37 AM 24.8 °F - 21.2 °F 86% 29.84 in 8.0 mi Calm Calm - 0.00 in   Overcast
12:55 AM 24.1 °F - 21.9 °F 91% 29.94 in 9.0 mi Calm Calm - 0.00 in   Overcast
1:36 AM 24.8 °F - 21.2 °F 86% 29.85 in 7.0 mi Calm Calm - 0.00 in Snow Light Snow
1:55 AM 24.1 °F - 21.9 °F 91% 29.95 in 9.0 mi Calm Calm - 0.00 in   Overcast
2:43 AM 24.8 °F - 21.2 °F 86% 29.85 in 10.0 mi Calm Calm - N/A   Overcast
2:50 AM 24.8 °F - 21.2 °F 86% 29.85 in 10.0 mi Calm Calm - N/A   Overcast
2:55 AM 24.1 °F - 21.9 °F 91% 29.95 in 10.0 mi Calm Calm - N/A   Overcast
3:55 AM 24.1 °F - 21.9 °F 91% 29.95 in 10.0 mi Calm Calm - N/A   Overcast
4:13 AM 24.8 °F - 21.2 °F 86% 29.85 in 10.0 mi Calm Calm - N/A   Overcast
4:55 AM 24.1 °F - 21.9 °F 91% 29.94 in 10.0 mi Calm Calm - N/A   Overcast
5:03 AM 24.8 °F 20.5 °F 21.2 °F 86% 29.83 in 10.0 mi WNW 3.5 mph - N/A   Overcast
5:55 AM 24.1 °F - 21.9 °F 91% 29.94 in 10.0 mi Calm Calm - N/A   Overcast
6:55 AM 25.0 °F - 23.0 °F 92% 29.93 in 10.0 mi Calm Calm - N/A   Overcast
7:27 AM 24.8 °F - 23.0 °F 93% 29.82 in 10.0 mi Calm Calm - N/A   Overcast
7:55 AM 24.1 °F - 23.0 °F 96% 29.93 in 10.0 mi Calm Calm - N/A   Overcast
8:50 AM 24.8 °F - 23.0 °F 93% 29.82 in 6.0 mi Calm Calm - N/A Snow Light Snow
8:55 AM 24.1 °F - 23.0 °F 96% 29.93 in 6.0 mi Calm Calm - 0.00 in   Overcast
9:16 AM 24.8 °F - 23.0 °F 93% 29.82 in 10.0 mi Calm Calm - N/A   Overcast
9:26 AM 24.8 °F - 23.0 °F 93% 29.82 in 10.0 mi Calm Calm - N/A   Overcast
9:55 AM 26.1 °F - 24.1 °F 92% 29.92 in 10.0 mi Calm Calm - N/A   Overcast
10:55 AM 27.0 °F - 24.1 °F 89% 29.92 in 10.0 mi Calm Calm - 0.00 in   Overcast
11:55 AM 28.0 °F - 24.1 °F 85% 29.89 in 9.0 mi Calm Calm - 0.00 in Snow Light Snow
12:55 PM 28.0 °F - 24.1 °F 85% 29.88 in 9.0 mi Calm Calm - 0.00 in Snow Light Snow
1:55 PM 30.0 °F - 25.0 °F 82% 29.84 in 10.0 mi Calm Calm - 0.00 in   Overcast
2:55 PM 30.0 °F - 25.0 °F 82% 29.82 in 10.0 mi Calm Calm - N/A   Overcast
3:55 PM 28.9 °F - 25.0 °F 85% 29.82 in 10.0 mi Calm Calm - 0.00 in Snow Light Snow
4:55 PM 28.0 °F - 25.0 °F 88% 29.80 in 9.0 mi Calm Calm - 0.00 in Snow Light Snow
5:55 PM 28.0 °F - 26.1 °F 92% 29.78 in 10.0 mi Calm Calm - 0.00 in Snow Light Snow
6:55 PM 26.1 °F - 24.1 °F 92% 29.75 in 10.0 mi Calm Calm - 0.00 in   Overcast
7:55 PM 25.0 °F - 24.1 °F 96% 29.73 in 10.0 mi Calm Calm - N/A   Overcast
8:55 PM 24.1 °F - 23.0 °F 96% 29.71 in 10.0 mi Calm Calm - N/A   Partly Cloudy
9:55 PM 24.1 °F - 23.0 °F 96% 29.70 in 8.0 mi Calm Calm - N/A   Overcast
10:55 PM 24.1 °F - 23.0 °F 96% 29.68 in 10.0 mi Calm Calm - N/A   Overcast
11:55 PM 23.0 °F - 21.9 °F 96% 29.68 in 10.0 mi Calm Calm - N/A   Overcast